DW4130 Weather Reports


time (UTC)temp
F
wind
direction
speed
knots
gust
knots
rain 1hr
in
rain 24hr
in
rain mn
in
humidity
%
barometer
mb
20260507062503 54 282 0.0 1.7 0.00 0.00 0.00 78 1013.5
20260507062003 55 271 0.9 2.6 0.00 0.00 0.00 78 1013.6
20260507061503 55 288 0.0 1.7 0.00 0.00 0.00 77 1013.6
20260507061003 55 288 0.9 2.6 0.00 0.00 0.00 77 1013.6
20260507060003 55 291 0.0 2.6 0.00 0.00 0.00 77 1013.5
20260507055505 55 273 0.9 2.6 0.00 0.00 0.00 77 1013.5
20260507055004 55 293 1.7 4.3 0.00 0.00 0.00 77 1013.5
20260507054503 55 285 0.0 1.7 0.00 0.00 0.00 77 1013.5
20260507054003 55 287 1.7 4.3 0.00 0.00 0.00 77 1013.5
20260507053504 55 281 0.9 4.3 0.00 0.00 0.00 77 1013.4
20260507053004 55 292 0.9 4.3 0.00 0.00 0.00 76 1013.4
20260507052503 55 293 1.7 7.8 0.00 0.00 0.00 76 1013.4
20260507052003 56 293 0.9 4.3 0.00 0.00 0.00 76 1013.4
20260507051504 56 310 0.9 4.3 0.00 0.00 0.00 76 1013.4
20260507051003 56 279 0.9 6.1 0.00 0.00 0.00 76 1013.4
20260507050503 56 308 0.9 2.6 0.00 0.00 0.00 76 1013.4
20260507050004 56 291 0.9 5.2 0.00 0.00 0.00 75 1013.4
20260507045503 56 278 0.9 4.3 0.00 0.00 0.00 75 1013.5
20260507044504 57 292 1.7 6.1 0.00 0.00 0.00 75 1013.5
20260507044003 57 291 0.9 4.3 0.00 0.00 0.00 75 1013.4
20260507043503 57 312 1.7 4.3 0.00 0.00 0.00 74 1013.4
20260507043003 57 277 0.9 6.1 0.00 0.00 0.00 74 1013.4
20260507042504 57 327 0.0 0.9 0.00 0.00 0.00 74 1013.5
20260507042004 57 310 1.7 5.2 0.00 0.00 0.00 74 1013.4
20260507041503 58 278 0.9 2.6 0.00 0.00 0.00 73 1013.4
20260507041004 58 237 0.0 2.6 0.00 0.00 0.00 73 1013.4
20260507040504 58 202 0.0 1.7 0.00 0.00 0.00 74 1013.3
20260507040003 58 293 1.7 7.8 0.00 0.00 0.00 74 1013.2
20260507034503 59 295 0.0 2.6 0.00 0.00 0.00 74 1013.0
20260507034003 59 280 0.9 5.2 0.00 0.00 0.00 74 1012.9
20260507033502 59 284 0.9 5.2 0.00 0.00 0.00 73 1012.9
20260507033003 59 303 1.7 7.8 0.00 0.00 0.00 73 1012.8
20260507032502 60 291 0.9 2.6 0.00 0.00 0.00 73 1012.7
20260507031503 60 288 0.9 4.3 0.00 0.00 0.00 73 1012.6
20260507031003 60 256 0.0 2.6 0.00 0.00 0.00 74 1012.5
20260507030502 60 276 0.9 6.1 0.00 0.00 0.00 73 1012.4
20260507030002 61 299 0.0 1.7 0.00 0.00 0.00 72 1012.4
20260507025502 61 302 0.0 1.7 0.00 0.00 0.00 72 1012.3
20260507025003 61 283 0.0 5.2 0.00 0.00 0.00 73 1012.3
20260507024504 61 296 0.0 4.3 0.00 0.00 0.00 72 1012.2
20260507024003 62 318 0.9 4.3 0.00 0.00 0.00 72 1012.3
20260507023502 62 298 0.0 2.6 0.00 0.00 0.00 72 1012.2
20260507022504 62 271 0.9 2.6 0.00 0.00 0.00 71 1012.2
20260507022003 63 299 0.9 5.2 0.00 0.00 0.00 71 1012.2
20260507021003 63 305 1.7 4.3 0.00 0.00 0.00 71 1012.2
20260507020502 63 295 1.7 7.0 0.00 0.00 0.00 71 1012.2
20260507020003 63 285 1.7 6.1 0.00 0.00 0.00 71 1012.2
20260507015503 63 302 1.7 4.3 0.00 0.00 0.00 70 1012.3
20260507015004 64 287 0.9 5.2 0.00 0.00 0.00 70 1012.3
20260507013504 64 290 1.7 4.3 0.00 0.00 0.00 70 1012.4
20260507012503 65 295 0.0 7.0 0.00 0.00 0.00 69 1012.4
20260507011503 65 304 0.0 1.7 0.00 0.00 0.00 69 1012.3
20260507011003 65 305 0.0 2.6 0.00 0.00 0.00 69 1012.3
20260507010504 65 291 0.9 5.2 0.00 0.00 0.00 69 1012.3
20260507010003 66 295 0.9 6.1 0.00 0.00 0.00 69 1012.3
20260507005503 66 287 0.9 2.6 0.00 0.00 0.00 69 1012.3
20260507005003 66 281 0.9 2.6 0.00 0.00 0.00 69 1012.3
20260507004003 66 127 0.0 2.6 0.00 0.00 0.00 70 1012.2
20260507003503 66 111 0.0 2.6 0.00 0.00 0.00 70 1012.2
20260507003004 66 87 0.0 1.7 0.00 0.00 0.00 70 1012.1
20260507002504 66 87 0.0 1.7 0.00 0.00 0.00 71 1012.2
20260507002003 66 87 0.0 1.7 0.00 0.00 0.00 71 1012.2
20260507001504 66 87 0.0 1.7 0.00 0.00 0.00 71 1012.2
20260507001004 65 294 0.9 2.6 0.00 0.00 0.00 71 1012.2
20260507000503 65 66 0.0 1.7 0.00 0.00 0.00 71 1012.2
20260507000005 65 66 1.7 2.6 0.00 0.00 0.00 71 1012.2
20260506235504 65 283 0.0 1.7 0.00 0.00 0.00 72 1012.2
20260506234504 65 20 0.0 2.6 0.00 0.00 0.00 72 1012.2
20260506234004 65 66 0.0 0.0 0.00 0.00 0.00 73 1012.2
20260506233503 65 65 0.9 2.6 0.00 0.00 0.00 72 1012.2
20260506233002 65 307 0.0 2.6 0.00 0.00 0.00 73 1012.2
20260506232502 65 323 0.0 1.7 0.00 0.00 0.00 72 1012.3
20260506232002 65 323 0.0 0.0 0.00 0.00 0.00 72 1012.2
20260506231003 66 287 0.0 2.6 0.00 0.00 0.00 69 1012.3
20260506230503 66 319 0.0 1.7 0.00 0.00 0.00 73 1012.3
20260506225503 66 321 0.0 0.0 0.00 0.00 0.00 72 1012.4
20260506225003 65 319 0.0 1.7 0.00 0.00 0.00 71 1012.5
20260506224503 65 319 0.0 1.7 0.00 0.00 0.00 71 1012.5
20260506224003 65 294 0.0 1.7 0.00 0.00 0.00 74 1012.6
20260506223503 66 294 0.0 1.7 0.00 0.00 0.00 70 1012.6
20260506223004 65 273 0.9 2.6 0.00 0.00 0.00 71 1012.6
20260506222503 65 139 0.0 0.9 0.00 0.00 0.00 73 1012.7
20260506222003 65 139 0.0 0.0 0.00 0.00 0.00 70 1012.7
20260506221504 65 139 0.0 1.7 0.00 0.00 0.00 72 1012.7
20260506221003 65 139 0.0 0.0 0.00 0.00 0.00 73 1012.8
20260506220503 65 139 0.0 1.7 0.00 0.00 0.00 71 1012.8
20260506215004 64 68 0.0 0.0 0.00 0.00 0.00 71 1012.8
20260506214504 64 69 0.0 1.7 0.00 0.00 0.00 73 1012.7
20260506214004 64 69 0.0 1.7 0.00 0.00 0.00 70 1012.8
20260506213503 64 105 0.0 1.7 0.00 0.00 0.00 72 1012.8
20260506213003 64 101 0.0 1.7 0.00 0.00 0.00 73 1012.8
20260506212003 64 93 0.9 1.7 0.00 0.00 0.00 72 1013.0
20260506211503 63 69 0.0 0.9 0.00 0.00 0.00 72 1013.1
20260506211004 63 69 0.0 1.7 0.00 0.00 0.00 72 1013.2
20260506210504 63 69 0.0 1.7 0.00 0.00 0.00 74 1013.1
20260506210004 62 69 0.0 1.7 0.00 0.00 0.00 74 1013.2
20260506205504 63 69 0.0 0.0 0.00 0.00 0.00 76 1013.3
20260506205004 63 69 0.0 1.7 0.00 0.00 0.00 75 1013.3
20260506204503 62 69 0.0 1.7 0.00 0.00 0.00 77 1013.2
20260506203503 63 76 0.0 1.7 0.00 0.00 0.00 77 1013.2
20260506203004 62 76 0.0 1.7 0.00 0.00 0.00 75 1013.2
20260506202503 62 76 0.0 0.9 0.00 0.00 0.00 74 1013.1
20260506202003 62 76 0.0 1.7 0.00 0.00 0.00 77 1013.2
20260506201503 62 76 0.0 1.7 0.00 0.00 0.00 76 1013.2
20260506201004 62 76 0.0 1.7 0.00 0.00 0.00 75 1013.2
20260506200504 62 75 0.0 0.9 0.00 0.00 0.00 76 1013.2
20260506200004 62 75 0.0 0.9 0.00 0.00 0.00 76 1013.3
20260506195504 62 75 0.0 0.9 0.00 0.00 0.00 76 1013.3
20260506195004 61 76 0.0 0.9 0.00 0.00 0.00 79 1013.4
20260506194504 61 76 0.0 1.7 0.00 0.00 0.00 76 1013.4
20260506193503 62 288 0.0 1.7 0.00 0.00 0.00 76 1013.6
20260506193004 62 288 0.9 2.6 0.00 0.00 0.00 78 1013.6
20260506192504 62 302 0.0 0.0 0.00 0.00 0.00 78 1013.5
20260506192005 62 302 0.0 0.0 0.00 0.00 0.00 75 1013.5
20260506191504 62 302 0.0 1.7 0.00 0.00 0.00 75 1013.4
20260506191004 63 302 1.7 2.6 0.00 0.00 0.00 75 1013.4
20260506190003 61 172 0.0 1.7 0.00 0.00 0.00 76 1013.4
20260506185003 61 61 0.9 1.7 0.00 0.00 0.00 75 1013.4
20260506184503 61 303 0.0 0.9 0.00 0.00 0.00 76 1013.4
20260506184003 62 303 0.9 2.6 0.00 0.00 0.00 77 1013.4
20260506183503 62 286 0.0 1.7 0.00 0.00 0.00 77 1013.3
20260506182502 61 286 0.0 1.7 0.00 0.00 0.00 76 1013.3
20260506182003 61 286 0.0 1.7 0.00 0.00 0.00 77 1013.3
20260506181503 61 286 0.0 1.7 0.00 0.00 0.00 76 1013.3
20260506181003 61 285 0.0 0.0 0.00 0.00 0.00 79 1013.3
20260506180004 61 285 0.0 1.7 0.00 0.00 0.00 78 1013.3
20260506175503 60 285 0.0 1.7 0.00 0.00 0.00 79 1013.3
20260506175004 60 285 0.9 2.6 0.00 0.00 0.00 79 1013.3
20260506174003 60 36 0.0 0.0 0.00 0.00 0.00 79 1013.2
20260506173003 59 36 0.0 0.0 0.00 0.00 0.00 79 1013.0
20260506172003 59 36 0.0 1.7 0.00 0.00 0.00 79 1013.0
20260506171503 60 286 0.0 0.9 0.00 0.00 0.00 79 1013.1
20260506171004 60 286 0.9 2.6 0.00 0.00 0.00 77 1013.1
20260506170503 60 311 0.9 1.7 0.00 0.00 0.00 78 1013.1
20260506170004 60 323 0.0 1.7 0.00 0.00 0.00 80 1013.1
20260506165503 59 81 0.0 1.7 0.00 0.00 0.00 79 1013.2
20260506165003 59 84 0.0 1.7 0.00 0.00 0.00 79 1013.1
20260506163503 59 296 0.0 2.6 0.00 0.00 0.00 81 1013.0
20260506163003 59 298 0.9 2.6 0.00 0.00 0.00 81 1013.1
20260506162504 58 235 0.0 0.0 0.00 0.00 0.00 81 1013.0
20260506162003 58 235 0.0 0.0 0.00 0.00 0.00 81 1012.9
20260506161504 58 235 0.0 1.7 0.00 0.00 0.00 82 1012.9
20260506160503 58 236 0.9 1.7 0.00 0.00 0.00 82 1012.8
20260506155503 58 99 0.0 1.7 0.00 0.00 0.00 81 1012.4
20260506155004 58 75 0.0 1.7 0.00 0.00 0.00 83 1012.3
20260506154503 57 288 0.0 0.0 0.00 0.00 0.00 83 1012.4
20260506154003 56 288 0.0 0.0 0.00 0.00 0.00 82 1012.4
20260506153504 57 288 0.0 1.7 0.00 0.00 0.00 83 1012.6
20260506153003 56 288 0.0 1.7 0.00 0.00 0.00 83 1012.8
20260506152004 56 297 0.0 2.6 0.00 0.00 0.00 83 1013.1
20260506151503 56 296 0.0 4.3 0.00 0.00 0.00 84 1013.1
20260506151004 56 290 0.9 4.3 0.00 0.00 0.00 84 1013.1
20260506150503 56 291 0.9 4.3 0.00 0.00 0.00 84 1013.1
20260506150003 56 287 0.9 4.3 0.00 0.00 0.00 84 1013.1
20260506145504 56 278 0.0 1.7 0.00 0.00 0.00 84 1013.0
20260506145003 56 278 0.0 0.0 0.00 0.00 0.00 84 1012.8
20260506144504 56 278 0.0 0.0 0.00 0.00 0.00 84 1012.8
20260506144003 56 278 0.0 1.7 0.00 0.00 0.00 84 1012.9
20260506143504 56 295 0.0 1.7 0.00 0.00 0.00 84 1012.8
20260506142502 56 294 0.0 1.7 0.00 0.00 0.00 84 1012.5
20260506142003 56 294 1.7 2.6 0.00 0.00 0.00 84 1012.4
20260506141502 56 291 0.0 0.0 0.00 0.00 0.00 84 1012.3
20260506141003 56 291 0.0 1.7 0.00 0.00 0.00 84 1012.3
20260506140002 56 290 0.9 2.6 0.00 0.00 0.00 85 1012.3
20260506135503 56 300 0.0 1.7 0.00 0.00 0.00 85 1012.3
20260506135002 56 302 0.0 1.7 0.00 0.00 0.00 84 1012.2
20260506134503 56 302 0.0 1.7 0.00 0.00 0.00 85 1012.1
20260506134002 56 302 0.0 2.6 0.00 0.00 0.00 85 1012.1
20260506133003 56 302 0.0 0.9 0.00 0.00 0.00 85 1012.0
20260506132003 56 302 0.0 0.0 0.00 0.00 0.00 84 1011.8
20260506131503 56 302 0.0 0.9 0.00 0.00 0.00 84 1011.8
20260506131003 56 302 0.0 1.7 0.00 0.00 0.00 84 1011.7
20260506130503 56 302 0.0 1.7 0.00 0.00 0.00 84 1011.7
20260506130003 56 302 0.0 1.7 0.00 0.00 0.00 84 1011.6
20260506125502 56 302 0.0 1.7 0.00 0.00 0.00 84 1011.6
20260506125004 56 302 0.0 1.7 0.00 0.00 0.00 84 1011.5
20260506124503 56 302 0.9 1.7 0.00 0.00 0.00 84 1011.5
20260506124003 56 302 0.0 1.7 0.00 0.00 0.00 84 1011.5
20260506123002 56 302 0.0 1.7 0.00 0.00 0.00 84 1011.5
20260506122503 56 302 0.0 1.7 0.00 0.00 0.00 84 1011.5
20260506122003 56 302 0.0 1.7 0.00 0.00 0.00 84 1011.5
20260506121003 56 298 0.0 1.7 0.00 0.00 0.00 84 1011.5
20260506120502 56 298 0.9 2.6 0.00 0.00 0.00 84 1011.5
20260506120004 56 298 0.0 2.6 0.00 0.00 0.00 84 1011.5
20260506115503 56 298 0.9 2.6 0.00 0.00 0.00 84 1011.4
20260506115003 56 280 0.0 1.7 0.00 0.00 0.00 84 1011.4
20260506114503 56 280 0.0 2.6 0.00 0.00 0.00 84 1011.2
20260506114003 56 280 0.0 1.7 0.00 0.00 0.00 84 1011.2
20260506113503 56 280 0.0 1.7 0.00 0.00 0.00 84 1011.2
20260506113003 56 280 1.7 2.6 0.00 0.00 0.00 84 1011.1
20260506112003 56 292 1.7 4.3 0.00 0.00 0.00 84 1011.1
20260506111504 56 293 0.9 1.7 0.00 0.00 0.00 84 1011.1
20260506111004 56 293 0.0 0.9 0.00 0.00 0.00 84 1011.0
20260506110503 56 293 0.0 1.7 0.00 0.00 0.00 84 1010.9
20260506110003 56 293 0.9 2.6 0.00 0.00 0.00 84 1010.8
20260506105503 56 289 0.0 1.7 0.00 0.00 0.00 84 1010.8
20260506105003 56 289 0.0 0.9 0.00 0.00 0.00 84 1010.7
20260506104003 56 289 0.9 1.7 0.00 0.00 0.00 84 1010.6
20260506103504 56 289 0.0 2.6 0.00 0.00 0.00 84 1010.5
20260506103004 56 289 0.0 2.6 0.00 0.00 0.00 84 1010.5
20260506102503 56 290 0.0 0.9 0.00 0.00 0.00 84 1010.4
20260506102004 56 290 0.0 1.7 0.00 0.00 0.00 83 1010.3
20260506101504 57 290 0.0 0.9 0.00 0.00 0.00 83 1010.3
20260506101003 57 289 0.0 1.7 0.00 0.00 0.00 83 1010.3
20260506100504 57 290 0.0 1.7 0.00 0.00 0.00 83 1010.3
20260506100004 57 290 0.0 1.7 0.00 0.00 0.00 83 1010.2
20260506095502 57 288 0.9 2.6 0.00 0.00 0.00 83 1010.2
20260506095003 57 286 0.0 0.0 0.00 0.00 0.00 83 1010.2
20260506094502 57 286 0.0 0.0 0.00 0.00 0.00 82 1010.2
20260506094002 57 286 0.0 0.0 0.00 0.00 0.00 82 1010.1
20260506093503 57 286 0.0 1.7 0.00 0.00 0.00 82 1010.1
20260506093002 57 286 0.0 1.7 0.00 0.00 0.00 82 1010.1
20260506092503 57 286 0.0 1.7 0.00 0.00 0.00 82 1010.1
20260506091003 57 290 0.0 1.7 0.00 0.00 0.00 82 1010.0
20260506090503 57 290 0.9 2.6 0.00 0.00 0.00 81 1010.1
20260506085503 57 290 0.0 0.0 0.00 0.00 0.00 81 1010.0
20260506085003 57 290 0.9 1.7 0.00 0.00 0.00 81 1010.0
20260506084503 57 290 0.0 0.0 0.00 0.00 0.00 81 1010.1
20260506084002 57 290 0.0 0.0 0.00 0.00 0.00 81 1010.1
20260506083503 58 290 0.0 1.7 0.00 0.00 0.00 81 1010.1
20260506083003 58 290 0.0 1.7 0.00 0.00 0.00 81 1010.1
20260506082503 58 313 0.0 2.6 0.00 0.00 0.00 81 1010.1
20260506081502 58 286 0.0 1.7 0.00 0.00 0.00 81 1010.0
20260506080503 58 283 0.9 1.7 0.00 0.00 0.00 81 1009.9
20260506073503 58 270 0.0 1.7 0.00 0.00 0.00 82 1009.6
20260506073003 58 270 0.9 2.6 0.00 0.00 0.00 82 1009.7
20260506072503 58 314 0.0 1.7 0.00 0.00 0.00 82 1009.6
20260506072003 58 318 0.0 1.7 0.00 0.00 0.00 83 1009.6
20260506071504 58 322 0.0 0.0 0.00 0.00 0.00 82 1009.6
20260506071003 58 322 0.0 1.7 0.00 0.00 0.00 83 1009.5